DSCS II F-13

operational
NORAD ID: 11621 Int'l Des: 1979-098 Owner: AFSD/DCA Country: US
HEOCIRCULAR

DSCS II F-13について

説明を読み込み中...

リアルタイム位置

3D地球を読み込み中...

次回通過

高度履歴

Altitude vs Time

uPlot chart will show altitude changes over time

軌道要素

1 11621U 79098A 26062.07725986 -.00000132 00000-0 00000-0 0 9991
2 11621 10.4580 313.6957 0006257 115.2314 69.3822 0.95598822614382
Epoch: Mar 3, 2026 • Age: 25 hours

現在のステータス

高度 37127.4 km
速度 3.03 km/s
衛星直下点 4.74°N, 65.92°W
打ち上げ日 Nov 21, 1979
運用期間 46.2 years
タイプ other

技術仕様

分類 Payload
質量 610.00 kg
乾燥質量 550.00 kg
総質量 610.00 kg
長さ 3.60 m
直径 2.70 m
スパン 3.60 m
形状 Cyl
製造者 TRW
バスタイプ DSCS II
フェーズステータス In Orbit
所有者/国 AFSD/DCA/US

大規模コンステレーション

Loading constellations...